| time (UTC) | temp F | wind direction | speed MPH | gust MPH | rain 1hr in | rain 24hr in | rain mn in | humidity % | barometer mb |
| 20260902224602 | 74 | 261 | 1.0 | 22.0 | 0.00 | 0.00 | 0.00 | 28 | 1010.3 |
| 20260902223102 | 75 | 225 | 10.0 | 14.0 | 0.00 | 0.00 | 0.00 | 28 | 1010.1 |
| 20260902221602 | 77 | 135 | 3.0 | 13.0 | 0.00 | 0.00 | 0.00 | 28 | 1010.0 |
| 20260902214603 | 76 | 86 | 1.0 | 14.0 | 0.00 | 0.00 | 0.00 | 27 | 1010.2 |
| 20260902213103 | 74 | 221 | 6.0 | 23.0 | 0.00 | 0.00 | 0.00 | 27 | 1010.4 |
| 20260902211606 | 74 | 121 | 4.0 | 13.0 | 0.00 | 0.00 | 0.00 | 27 | 1010.2 |
| 20260902204605 | 74 | 150 | 7.0 | 14.0 | 0.00 | 0.00 | 0.00 | 30 | 1010.2 |
| 20260902203107 | 75 | 124 | 4.0 | 12.0 | 0.00 | 0.00 | 0.00 | 29 | 1010.2 |
| 20260902201605 | 76 | 155 | 3.0 | 15.0 | 0.00 | 0.00 | 0.00 | 28 | 1010.3 |
| 20260902200104 | 77 | 142 | 13.0 | 20.0 | 0.00 | 0.00 | 0.00 | 25 | 1010.3 |
| 20260902194604 | 76 | 121 | 3.0 | 14.0 | 0.00 | 0.00 | 0.00 | 28 | 1010.3 |
| 20260902193104 | 76 | 211 | 7.0 | 17.0 | 0.00 | 0.00 | 0.00 | 24 | 1010.4 |
| 20260902191603 | 76 | 238 | 1.0 | 14.0 | 0.00 | 0.00 | 0.00 | 26 | 1010.5 |
| 20260902190106 | 76 | 115 | 5.0 | 13.0 | 0.00 | 0.00 | 0.00 | 26 | 1010.5 |
| 20260902184603 | 75 | 79 | 6.0 | 25.0 | 0.00 | 0.00 | 0.00 | 26 | 1010.4 |
| 20260902183107 | 75 | 145 | 2.0 | 10.0 | 0.00 | 0.00 | 0.00 | 25 | 1010.4 |
| 20260902181603 | 73 | 172 | 2.0 | 6.0 | 0.00 | 0.00 | 0.00 | 31 | 1010.6 |
| 20260902174603 | 71 | 219 | 0.0 | 6.0 | 0.00 | 0.00 | 0.00 | 40 | 1010.5 |
| 20260902171603 | 69 | 349 | 0.0 | 7.0 | 0.00 | 0.00 | 0.00 | 45 | 1010.8 |
| 20260902164604 | 65 | 117 | 2.0 | 5.0 | 0.00 | 0.00 | 0.00 | 61 | 1010.7 |
| 20260902163106 | 63 | 112 | 2.0 | 3.0 | 0.00 | 0.00 | 0.00 | 60 | 1010.8 |
| 20260902161603 | 62 | 11 | 0.0 | 1.0 | 0.00 | 0.00 | 0.00 | 66 | 1010.5 |
| 20260902160105 | 60 | 15 | 0.0 | 1.0 | 0.00 | 0.00 | 0.00 | 70 | 1010.6 |
| 20260902154604 | 59 | 8 | 0.0 | 2.0 | 0.00 | 0.00 | 0.00 | 73 | 1010.9 |
| 20260902153103 | 58 | 255 | 0.0 | 1.0 | 0.00 | 0.00 | 0.00 | 73 | 1010.9 |
| 20260902151604 | 57 | 282 | 0.0 | 3.0 | 0.00 | 0.00 | 0.00 | 68 | 1010.7 |
| 20260902150103 | 57 | 222 | 0.0 | 1.0 | 0.00 | 0.00 | 0.00 | 73 | 1010.6 |
| 20260902144604 | 57 | 319 | 2.0 | 3.0 | 0.00 | 0.00 | 0.00 | 72 | 1010.7 |
| 20260902143104 | 57 | 90 | 0.0 | 7.0 | 0.00 | 0.00 | 0.00 | 71 | 1011.1 |
| 20260902141602 | 56 | 288 | 2.0 | 6.0 | 0.00 | 0.00 | 0.00 | 75 | 1011.1 |
| 20260902134604 | 55 | 10 | 0.0 | 2.0 | 0.00 | 0.00 | 0.00 | 77 | 1011.0 |
| 20260902133102 | 56 | 25 | 2.0 | 2.0 | 0.00 | 0.00 | 0.00 | 75 | 1010.7 |
| 20260902131603 | 57 | 142 | 0.0 | 3.0 | 0.00 | 0.00 | 0.00 | 72 | 1010.9 |
| 20260902130107 | 60 | 40 | 0.0 | 3.0 | 0.00 | 0.00 | 0.00 | 64 | 1010.9 |
| 20260902123102 | 61 | 278 | 7.0 | 14.0 | 0.00 | 0.00 | 0.00 | 54 | 1010.6 |
| 20260902121602 | 58 | 328 | 1.0 | 4.0 | 0.00 | 0.00 | 0.00 | 66 | 1010.1 |
| 20260902114605 | 56 | 121 | 0.0 | 4.0 | 0.00 | 0.00 | 0.00 | 69 | 1010.5 |
| 20260902113101 | 59 | 163 | 4.0 | 6.0 | 0.00 | 0.00 | 0.00 | 60 | 1010.2 |
| 20260902111603 | 55 | 253 | 1.0 | 3.0 | 0.00 | 0.00 | 0.00 | 70 | 1009.4 |
| 20260902104603 | 55 | 11 | 0.0 | 1.0 | 0.00 | 0.00 | 0.00 | 72 | 1009.0 |
| 20260902103102 | 55 | 330 | 0.0 | 3.0 | 0.00 | 0.00 | 0.00 | 70 | 1008.8 |
| 20260902101603 | 55 | 353 | 0.0 | 1.0 | 0.00 | 0.00 | 0.00 | 69 | 1008.8 |
| 20260902094603 | 54 | 319 | 0.0 | 1.0 | 0.00 | 0.00 | 0.00 | 71 | 1008.7 |
| 20260902093106 | 54 | 313 | 0.0 | 1.0 | 0.00 | 0.00 | 0.00 | 70 | 1008.4 |
| 20260902091603 | 52 | 264 | 0.0 | 1.0 | 0.00 | 0.00 | 0.00 | 74 | 1008.6 |
| 20260902090104 | 52 | 4 | 0.0 | 2.0 | 0.00 | 0.00 | 0.00 | 73 | 1008.4 |
| 20260902084603 | 51 | 255 | 0.0 | 1.0 | 0.00 | 0.00 | 0.00 | 76 | 1008.4 |
| 20260902083102 | 50 | 338 | 0.0 | 1.0 | 0.00 | 0.00 | 0.00 | 75 | 1008.4 |
| 20260902081602 | 50 | 1 | 0.0 | 0.0 | 0.00 | 0.00 | 0.00 | 73 | 1008.4 |
| 20260902080103 | 51 | 354 | 0.0 | 1.0 | 0.00 | 0.00 | 0.00 | 70 | 1008.2 |
| 20260902073102 | 52 | 335 | 0.0 | 2.0 | 0.00 | 0.00 | 0.00 | 70 | 1008.2 |
| 20260902071603 | 51 | 12 | 0.0 | 1.0 | 0.00 | 0.00 | 0.00 | 72 | 1008.3 |
| 20260902064603 | 52 | 332 | 0.0 | 1.0 | 0.00 | 0.00 | 0.00 | 70 | 1008.4 |
| 20260902063104 | 54 | 345 | 0.0 | 3.0 | 0.00 | 0.00 | 0.00 | 70 | 1008.6 |
| 20260902061602 | 57 | 336 | 0.0 | 1.0 | 0.00 | 0.00 | 0.00 | 65 | 1008.6 |
| 20260902054604 | 59 | 335 | 0.0 | 1.0 | 0.00 | 0.00 | 0.00 | 58 | 1008.6 |
| 20260902053103 | 59 | 23 | 2.0 | 2.0 | 0.00 | 0.00 | 0.00 | 60 | 1008.7 |
| 20260902051603 | 59 | 307 | 0.0 | 1.0 | 0.00 | 0.00 | 0.00 | 59 | 1008.8 |
| 20260902050105 | 61 | 283 | 0.0 | 3.0 | 0.00 | 0.00 | 0.00 | 58 | 1008.8 |
| 20260902044603 | 62 | 3 | 1.0 | 3.0 | 0.00 | 0.00 | 0.00 | 53 | 1008.8 |
| 20260902043107 | 62 | 319 | 0.0 | 4.0 | 0.00 | 0.00 | 0.00 | 57 | 1008.8 |
| 20260902041603 | 61 | 329 | 2.0 | 5.0 | 0.00 | 0.00 | 0.00 | 60 | 1008.8 |
| 20260902034603 | 62 | 328 | 2.0 | 5.0 | 0.00 | 0.00 | 0.00 | 60 | 1008.8 |
| 20260902033103 | 62 | 322 | 3.0 | 6.0 | 0.00 | 0.00 | 0.00 | 64 | 1008.7 |
| 20260902031602 | 62 | 297 | 0.0 | 4.0 | 0.00 | 0.00 | 0.00 | 66 | 1008.6 |
| 20260902030103 | 63 | 333 | 1.0 | 5.0 | 0.00 | 0.00 | 0.00 | 65 | 1008.6 |
| 20260902024606 | 63 | 295 | 0.0 | 4.0 | 0.00 | 0.00 | 0.00 | 69 | 1008.5 |
| 20260902023105 | 63 | 319 | 3.0 | 4.0 | 0.00 | 0.00 | 0.00 | 69 | 1008.4 |
| 20260902014606 | 68 | 6 | 0.0 | 1.0 | 0.00 | 0.00 | 0.00 | 67 | 1008.6 |
| 20260902013105 | 69 | 6 | 0.0 | 1.0 | 0.00 | 0.00 | 0.00 | 65 | 1008.6 |
| 20260902011603 | 71 | 257 | 0.0 | 0.0 | 0.00 | 0.00 | 0.00 | 60 | 1008.7 |
| 20260902004603 | 71 | 238 | 0.0 | 1.0 | 0.00 | 0.00 | 0.00 | 57 | 1009.1 |
| 20260902003104 | 72 | 208 | 0.0 | 0.0 | 0.00 | 0.00 | 0.00 | 57 | 1009.3 |
| 20260902000103 | 74 | 208 | 0.0 | 0.0 | 0.00 | 0.00 | 0.00 | 52 | 1010.0 |
| 20260901234603 | 74 | 208 | 0.0 | 1.0 | 0.00 | 0.00 | 0.00 | 51 | 1010.1 |
| 20260901233102 | 75 | 214 | 0.0 | 2.0 | 0.00 | 0.00 | 0.00 | 51 | 1010.4 |
| 20260901231605 | 77 | 212 | 1.0 | 3.0 | 0.00 | 0.00 | 0.00 | 47 | 1010.3 |
| 20260901230104 | 77 | 84 | 0.0 | 4.0 | 0.00 | 0.00 | 0.00 | 49 | 1010.5 |